Data supplied by UK-AIR on 27/11/2015
All Data GMT hour ending 
Status: R =Ratified P=Provisional,P*=As supplied
,,Stockton-on-Tees Eaglescliffe,,,,,,,,,,,,,,,,,,,,,,,
Date,time,"PM<sub>10</sub> particulate matter (Hourly measured)",status,unit,"Nitric oxide",status,unit,"Nitrogen dioxide",status,unit,"Nitrogen oxides as nitrogen dioxide",status,unit,"PM<sub>2.5</sub> particulate matter (Hourly measured)",status,unit
 
01-01-2012,01:00,8.000,R,ugm-3 (Ref.eq),1.00000,R,ugm-3,4.00000,R,ugm-3,6.00000,R,ugm-3,5.000,R,ugm-3 (BAM)
01-01-2012,02:00,9.000,R,ugm-3 (Ref.eq),1.00000,R,ugm-3,4.00000,R,ugm-3,6.00000,R,ugm-3,5.000,R,ugm-3 (BAM)
01-01-2012,03:00,15.000,R,ugm-3 (Ref.eq),1.00000,R,ugm-3,4.00000,R,ugm-3,6.00000,R,ugm-3,5.000,R,ugm-3 (BAM)
01-01-2012,04:00,4.000,R,ugm-3 (Ref.eq),1.00000,R,ugm-3,4.00000,R,ugm-3,6.00000,R,ugm-3,5.000,R,ugm-3 (BAM)
01-01-2012,05:00,13.000,R,ugm-3 (Ref.eq),1.00000,R,ugm-3,2.00000,R,ugm-3,4.00000,R,ugm-3,6.000,R,ugm-3 (BAM)
01-01-2012,06:00,13.000,R,ugm-3 (Ref.eq),1.00000,R,ugm-3,4.00000,R,ugm-3,6.00000,R,ugm-3,4.000,R,ugm-3 (BAM)
01-01-2012,07:00,9.000,R,ugm-3 (Ref.eq),1.00000,R,ugm-3,4.00000,R,ugm-3,6.00000,R,ugm-3,4.000,R,ugm-3 (BAM)
01-01-2012,08:00,10.000,R,ugm-3 (Ref.eq),1.00000,R,ugm-3,4.00000,R,ugm-3,6.00000,R,ugm-3,5.000,R,ugm-3 (BAM)
01-01-2012,09:00,10.000,R,ugm-3 (Ref.eq),1.00000,R,ugm-3,6.00000,R,ugm-3,8.00000,R,ugm-3,1.000,R,ugm-3 (BAM)
01-01-2012,10:00,8.000,R,ugm-3 (Ref.eq),1.00000,R,ugm-3,8.00000,R,ugm-3,10.00000,R,ugm-3,4.000,R,ugm-3 (BAM)
01-01-2012,11:00,7.000,R,ugm-3 (Ref.eq),1.00000,R,ugm-3,8.00000,R,ugm-3,10.00000,R,ugm-3,9.000,R,ugm-3 (BAM)
01-01-2012,12:00,6.000,R,ugm-3 (Ref.eq),1.00000,R,ugm-3,6.00000,R,ugm-3,8.00000,R,ugm-3,5.000,R,ugm-3 (BAM)
01-01-2012,13:00,5.000,R,ugm-3 (Ref.eq),2.00000,R,ugm-3,4.00000,R,ugm-3,8.00000,R,ugm-3,2.000,R,ugm-3 (BAM)
01-01-2012,14:00,5.000,R,ugm-3 (Ref.eq),1.00000,R,ugm-3,4.00000,R,ugm-3,6.00000,R,ugm-3,,,
01-01-2012,15:00,8.000,R,ugm-3 (Ref.eq),1.00000,R,ugm-3,6.00000,R,ugm-3,8.00000,R,ugm-3,2.000,R,ugm-3 (BAM)
01-01-2012,16:00,8.000,R,ugm-3 (Ref.eq),1.00000,R,ugm-3,10.00000,R,ugm-3,11.00000,R,ugm-3,7.000,R,ugm-3 (BAM)
01-01-2012,17:00,9.000,R,ugm-3 (Ref.eq),1.00000,R,ugm-3,11.00000,R,ugm-3,13.00000,R,ugm-3,20.000,R,ugm-3 (BAM)
01-01-2012,18:00,13.000,R,ugm-3 (Ref.eq),2.00000,R,ugm-3,11.00000,R,ugm-3,15.00000,R,ugm-3,5.000,R,ugm-3 (BAM)
01-01-2012,19:00,13.000,R,ugm-3 (Ref.eq),1.00000,R,ugm-3,8.00000,R,ugm-3,10.00000,R,ugm-3,6.000,R,ugm-3 (BAM)
01-01-2012,20:00,10.000,R,ugm-3 (Ref.eq),1.00000,R,ugm-3,6.00000,R,ugm-3,8.00000,R,ugm-3,5.000,R,ugm-3 (BAM)
01-01-2012,21:00,8.000,R,ugm-3 (Ref.eq),1.00000,R,ugm-3,4.00000,R,ugm-3,6.00000,R,ugm-3,4.000,R,ugm-3 (BAM)
01-01-2012,22:00,8.000,R,ugm-3 (Ref.eq),1.00000,R,ugm-3,4.00000,R,ugm-3,6.00000,R,ugm-3,4.000,R,ugm-3 (BAM)
01-01-2012,23:00,6.000,R,ugm-3 (Ref.eq),1.00000,R,ugm-3,2.00000,R,ugm-3,4.00000,R,ugm-3,1.000,R,ugm-3 (BAM)
01-01-2012,24:00,4.000,R,ugm-3 (Ref.eq),1.00000,R,ugm-3,4.00000,R,ugm-3,6.00000,R,ugm-3,3.000,R,ugm-3 (BAM)
02-01-2012,01:00,7.000,R,ugm-3 (Ref.eq),0.00000,R,ugm-3,2.00000,R,ugm-3,2.00000,R,ugm-3,6.000,R,ugm-3 (BAM)
02-01-2012,02:00,7.000,R,ugm-3 (Ref.eq),0.00000,R,ugm-3,0.00000,R,ugm-3,0.00000,R,ugm-3,8.000,R,ugm-3 (BAM)
02-01-2012,03:00,4.000,R,ugm-3 (Ref.eq),0.00000,R,ugm-3,0.00000,R,ugm-3,0.00000,R,ugm-3,4.000,R,ugm-3 (BAM)
02-01-2012,04:00,5.000,R,ugm-3 (Ref.eq),0.00000,R,ugm-3,2.00000,R,ugm-3,2.00000,R,ugm-3,3.000,R,ugm-3 (BAM)
02-01-2012,05:00,7.000,R,ugm-3 (Ref.eq),0.00000,R,ugm-3,2.00000,R,ugm-3,2.00000,R,ugm-3,2.000,R,ugm-3 (BAM)
02-01-2012,06:00,7.000,R,ugm-3 (Ref.eq),0.00000,R,ugm-3,2.00000,R,ugm-3,2.00000,R,ugm-3,2.000,R,ugm-3 (BAM)
02-01-2012,07:00,4.000,R,ugm-3 (Ref.eq),0.00000,R,ugm-3,2.00000,R,ugm-3,2.00000,R,ugm-3,4.000,R,ugm-3 (BAM)
02-01-2012,08:00,3.000,R,ugm-3 (Ref.eq),0.00000,R,ugm-3,6.00000,R,ugm-3,6.00000,R,ugm-3,2.000,R,ugm-3 (BAM)
02-01-2012,09:00,4.000,R,ugm-3 (Ref.eq),0.00000,R,ugm-3,4.00000,R,ugm-3,4.00000,R,ugm-3,4.000,R,ugm-3 (BAM)
02-01-2012,10:00,5.000,R,ugm-3 (Ref.eq),1.00000,R,ugm-3,4.00000,R,ugm-3,6.00000,R,ugm-3,4.000,R,ugm-3 (BAM)
02-01-2012,11:00,3.000,R,ugm-3 (Ref.eq),0.00000,R,ugm-3,4.00000,R,ugm-3,4.00000,R,ugm-3,5.000,R,ugm-3 (BAM)
02-01-2012,12:00,4.000,R,ugm-3 (Ref.eq),0.00000,R,ugm-3,6.00000,R,ugm-3,6.00000,R,ugm-3,5.000,R,ugm-3 (BAM)
02-01-2012,13:00,8.000,R,ugm-3 (Ref.eq),0.00000,R,ugm-3,4.00000,R,ugm-3,4.00000,R,ugm-3,4.000,R,ugm-3 (BAM)
02-01-2012,14:00,15.000,R,ugm-3 (Ref.eq),0.00000,R,ugm-3,4.00000,R,ugm-3,4.00000,R,ugm-3,2.000,R,ugm-3 (BAM)
02-01-2012,15:00,9.000,R,ugm-3 (Ref.eq),0.00000,R,ugm-3,6.00000,R,ugm-3,6.00000,R,ugm-3,2.000,R,ugm-3 (BAM)
02-01-2012,16:00,8.000,R,ugm-3 (Ref.eq),0.00000,R,ugm-3,4.00000,R,ugm-3,4.00000,R,ugm-3,3.000,R,ugm-3 (BAM)
02-01-2012,17:00,3.000,R,ugm-3 (Ref.eq),0.00000,R,ugm-3,6.00000,R,ugm-3,6.00000,R,ugm-3,6.000,R,ugm-3 (BAM)
02-01-2012,18:00,3.000,R,ugm-3 (Ref.eq),0.00000,R,ugm-3,4.00000,R,ugm-3,4.00000,R,ugm-3,11.000,R,ugm-3 (BAM)
02-01-2012,19:00,6.000,R,ugm-3 (Ref.eq),0.00000,R,ugm-3,4.00000,R,ugm-3,4.00000,R,ugm-3,7.000,R,ugm-3 (BAM)
02-01-2012,20:00,7.000,R,ugm-3 (Ref.eq),0.00000,R,ugm-3,4.00000,R,ugm-3,4.00000,R,ugm-3,0.000,R,ugm-3 (BAM)
02-01-2012,21:00,8.000,R,ugm-3 (Ref.eq),0.00000,R,ugm-3,6.00000,R,ugm-3,6.00000,R,ugm-3,0.000,R,ugm-3 (BAM)
02-01-2012,22:00,7.000,R,ugm-3 (Ref.eq),0.00000,R,ugm-3,6.00000,R,ugm-3,6.00000,R,ugm-3,3.000,R,ugm-3 (BAM)
02-01-2012,23:00,8.000,R,ugm-3 (Ref.eq),0.00000,R,ugm-3,6.00000,R,ugm-3,6.00000,R,ugm-3,5.000,R,ugm-3 (BAM)
02-01-2012,24:00,8.000,R,ugm-3 (Ref.eq),0.00000,R,ugm-3,8.00000,R,ugm-3,8.00000,R,ugm-3,4.000,R,ugm-3 (BAM)
03-01-2012,01:00,14.000,R,ugm-3 (Ref.eq),0.00000,R,ugm-3,8.00000,R,ugm-3,8.00000,R,ugm-3,5.000,R,ugm-3 (BAM)
03-01-2012,02:00,12.000,R,ugm-3 (Ref.eq),0.00000,R,ugm-3,6.00000,R,ugm-3,6.00000,R,ugm-3,3.000,R,ugm-3 (BAM)
03-01-2012,03:00,10.000,R,ugm-3 (Ref.eq),0.00000,R,ugm-3,6.00000,R,ugm-3,6.00000,R,ugm-3,4.000,R,ugm-3 (BAM)
03-01-2012,04:00,13.000,R,ugm-3 (Ref.eq),0.00000,R,ugm-3,8.00000,R,ugm-3,8.00000,R,ugm-3,4.000,R,ugm-3 (BAM)
03-01-2012,05:00,17.000,R,ugm-3 (Ref.eq),0.00000,R,ugm-3,4.00000,R,ugm-3,4.00000,R,ugm-3,4.000,R,ugm-3 (BAM)
03-01-2012,06:00,5.000,R,ugm-3 (Ref.eq),0.00000,R,ugm-3,6.00000,R,ugm-3,6.00000,R,ugm-3,3.000,R,ugm-3 (BAM)
03-01-2012,07:00,8.000,R,ugm-3 (Ref.eq),0.00000,R,ugm-3,6.00000,R,ugm-3,6.00000,R,ugm-3,2.000,R,ugm-3 (BAM)
03-01-2012,08:00,11.000,R,ugm-3 (Ref.eq),0.00000,R,ugm-3,4.00000,R,ugm-3,4.00000,R,ugm-3,5.000,R,ugm-3 (BAM)
03-01-2012,09:00,17.000,R,ugm-3 (Ref.eq),0.00000,R,ugm-3,6.00000,R,ugm-3,6.00000,R,ugm-3,6.000,R,ugm-3 (BAM)
03-01-2012,10:00,13.000,R,ugm-3 (Ref.eq),0.00000,R,ugm-3,2.00000,R,ugm-3,2.00000,R,ugm-3,5.000,R,ugm-3 (BAM)
03-01-2012,11:00,13.000,R,ugm-3 (Ref.eq),0.00000,R,ugm-3,2.00000,R,ugm-3,2.00000,R,ugm-3,3.000,R,ugm-3 (BAM)
03-01-2012,12:00,6.000,R,ugm-3 (Ref.eq),0.00000,R,ugm-3,2.00000,R,ugm-3,2.00000,R,ugm-3,2.000,R,ugm-3 (BAM)
03-01-2012,13:00,7.000,R,ugm-3 (Ref.eq),0.00000,R,ugm-3,2.00000,R,ugm-3,2.00000,R,ugm-3,,,
03-01-2012,14:00,8.000,R,ugm-3 (Ref.eq),0.00000,R,ugm-3,2.00000,R,ugm-3,2.00000,R,ugm-3,0.000,R,ugm-3 (BAM)
03-01-2012,15:00,6.000,R,ugm-3 (Ref.eq),0.00000,R,ugm-3,2.00000,R,ugm-3,2.00000,R,ugm-3,1.000,R,ugm-3 (BAM)
03-01-2012,16:00,3.000,R,ugm-3 (Ref.eq),1.00000,R,ugm-3,6.00000,R,ugm-3,8.00000,R,ugm-3,0.000,R,ugm-3 (BAM)
03-01-2012,17:00,4.000,R,ugm-3 (Ref.eq),0.00000,R,ugm-3,4.00000,R,ugm-3,4.00000,R,ugm-3,3.000,R,ugm-3 (BAM)
03-01-2012,18:00,8.000,R,ugm-3 (Ref.eq),0.00000,R,ugm-3,6.00000,R,ugm-3,6.00000,R,ugm-3,6.000,R,ugm-3 (BAM)
03-01-2012,19:00,4.000,R,ugm-3 (Ref.eq),0.00000,R,ugm-3,2.00000,R,ugm-3,2.00000,R,ugm-3,3.000,R,ugm-3 (BAM)
03-01-2012,20:00,0.000,R,ugm-3 (Ref.eq),0.00000,R,ugm-3,2.00000,R,ugm-3,2.00000,R,ugm-3,0.000,R,ugm-3 (BAM)
03-01-2012,21:00,3.000,R,ugm-3 (Ref.eq),0.00000,R,ugm-3,6.00000,R,ugm-3,6.00000,R,ugm-3,0.000,R,ugm-3 (BAM)
03-01-2012,22:00,8.000,R,ugm-3 (Ref.eq),0.00000,R,ugm-3,6.00000,R,ugm-3,6.00000,R,ugm-3,1.000,R,ugm-3 (BAM)
03-01-2012,23:00,6.000,R,ugm-3 (Ref.eq),0.00000,R,ugm-3,2.00000,R,ugm-3,2.00000,R,ugm-3,4.000,R,ugm-3 (BAM)
03-01-2012,24:00,6.000,R,ugm-3 (Ref.eq),0.00000,R,ugm-3,2.00000,R,ugm-3,2.00000,R,ugm-3,3.000,R,ugm-3 (BAM)
04-01-2012,01:00,8.000,R,ugm-3 (Ref.eq),1.00000,R,ugm-3,4.00000,R,ugm-3,6.00000,R,ugm-3,,,
04-01-2012,02:00,5.000,R,ugm-3 (Ref.eq),1.00000,R,ugm-3,4.00000,R,ugm-3,6.00000,R,ugm-3,,,
04-01-2012,03:00,6.000,R,ugm-3 (Ref.eq),2.00000,R,ugm-3,2.00000,R,ugm-3,6.00000,R,ugm-3,2.000,R,ugm-3 (BAM)
04-01-2012,04:00,5.000,R,ugm-3 (Ref.eq),2.00000,R,ugm-3,4.00000,R,ugm-3,8.00000,R,ugm-3,1.000,R,ugm-3 (BAM)
04-01-2012,05:00,7.000,R,ugm-3 (Ref.eq),1.00000,R,ugm-3,4.00000,R,ugm-3,6.00000,R,ugm-3,2.000,R,ugm-3 (BAM)
04-01-2012,06:00,8.000,R,ugm-3 (Ref.eq),1.00000,R,ugm-3,4.00000,R,ugm-3,6.00000,R,ugm-3,5.000,R,ugm-3 (BAM)
04-01-2012,07:00,8.000,R,ugm-3 (Ref.eq),1.00000,R,ugm-3,6.00000,R,ugm-3,8.00000,R,ugm-3,9.000,R,ugm-3 (BAM)
04-01-2012,08:00,7.000,R,ugm-3 (Ref.eq),2.00000,R,ugm-3,6.00000,R,ugm-3,10.00000,R,ugm-3,8.000,R,ugm-3 (BAM)
04-01-2012,09:00,8.000,R,ugm-3 (Ref.eq),2.00000,R,ugm-3,6.00000,R,ugm-3,10.00000,R,ugm-3,5.000,R,ugm-3 (BAM)
04-01-2012,10:00,10.000,R,ugm-3 (Ref.eq),1.00000,R,ugm-3,6.00000,R,ugm-3,8.00000,R,ugm-3,4.000,R,ugm-3 (BAM)
04-01-2012,11:00,6.000,R,ugm-3 (Ref.eq),2.00000,R,ugm-3,6.00000,R,ugm-3,10.00000,R,ugm-3,3.000,R,ugm-3 (BAM)
04-01-2012,12:00,5.000,R,ugm-3 (Ref.eq),1.00000,R,ugm-3,6.00000,R,ugm-3,8.00000,R,ugm-3,3.000,R,ugm-3 (BAM)
04-01-2012,13:00,4.000,R,ugm-3 (Ref.eq),2.00000,R,ugm-3,4.00000,R,ugm-3,8.00000,R,ugm-3,,,
04-01-2012,14:00,3.000,R,ugm-3 (Ref.eq),1.00000,R,ugm-3,6.00000,R,ugm-3,8.00000,R,ugm-3,0.000,R,ugm-3 (BAM)
04-01-2012,15:00,6.000,R,ugm-3 (Ref.eq),1.00000,R,ugm-3,6.00000,R,ugm-3,8.00000,R,ugm-3,1.000,R,ugm-3 (BAM)
04-01-2012,16:00,9.000,R,ugm-3 (Ref.eq),2.00000,R,ugm-3,6.00000,R,ugm-3,10.00000,R,ugm-3,,,
04-01-2012,17:00,10.000,R,ugm-3 (Ref.eq),1.00000,R,ugm-3,4.00000,R,ugm-3,6.00000,R,ugm-3,,,
04-01-2012,18:00,8.000,R,ugm-3 (Ref.eq),1.00000,R,ugm-3,4.00000,R,ugm-3,6.00000,R,ugm-3,,,
04-01-2012,19:00,5.000,R,ugm-3 (Ref.eq),2.00000,R,ugm-3,4.00000,R,ugm-3,8.00000,R,ugm-3,,,
04-01-2012,20:00,4.000,R,ugm-3 (Ref.eq),1.00000,R,ugm-3,2.00000,R,ugm-3,4.00000,R,ugm-3,2.000,R,ugm-3 (BAM)
04-01-2012,21:00,6.000,R,ugm-3 (Ref.eq),1.00000,R,ugm-3,4.00000,R,ugm-3,6.00000,R,ugm-3,1.000,R,ugm-3 (BAM)
04-01-2012,22:00,9.000,R,ugm-3 (Ref.eq),1.00000,R,ugm-3,2.00000,R,ugm-3,4.00000,R,ugm-3,1.000,R,ugm-3 (BAM)
04-01-2012,23:00,9.000,R,ugm-3 (Ref.eq),1.00000,R,ugm-3,4.00000,R,ugm-3,6.00000,R,ugm-3,,,
04-01-2012,24:00,7.000,R,ugm-3 (Ref.eq),1.00000,R,ugm-3,4.00000,R,ugm-3,6.00000,R,ugm-3,0.000,R,ugm-3 (BAM)
05-01-2012,01:00,9.000,R,ugm-3 (Ref.eq),0.00000,R,ugm-3,2.00000,R,ugm-3,2.00000,R,ugm-3,3.000,R,ugm-3 (BAM)
05-01-2012,02:00,10.000,R,ugm-3 (Ref.eq),0.00000,R,ugm-3,0.00000,R,ugm-3,0.00000,R,ugm-3,0.000,R,ugm-3 (BAM)
05-01-2012,03:00,6.000,R,ugm-3 (Ref.eq),0.00000,R,ugm-3,2.00000,R,ugm-3,2.00000,R,ugm-3,2.000,R,ugm-3 (BAM)
05-01-2012,04:00,6.000,R,ugm-3 (Ref.eq),0.00000,R,ugm-3,4.00000,R,ugm-3,4.00000,R,ugm-3,6.000,R,ugm-3 (BAM)
05-01-2012,05:00,8.000,R,ugm-3 (Ref.eq),0.00000,R,ugm-3,2.00000,R,ugm-3,2.00000,R,ugm-3,3.000,R,ugm-3 (BAM)
05-01-2012,06:00,4.000,R,ugm-3 (Ref.eq),0.00000,R,ugm-3,4.00000,R,ugm-3,4.00000,R,ugm-3,1.000,R,ugm-3 (BAM)
05-01-2012,07:00,5.000,R,ugm-3 (Ref.eq),1.00000,R,ugm-3,6.00000,R,ugm-3,8.00000,R,ugm-3,1.000,R,ugm-3 (BAM)
05-01-2012,08:00,8.000,R,ugm-3 (Ref.eq),1.00000,R,ugm-3,6.00000,R,ugm-3,8.00000,R,ugm-3,3.000,R,ugm-3 (BAM)
05-01-2012,09:00,8.000,R,ugm-3 (Ref.eq),1.00000,R,ugm-3,8.00000,R,ugm-3,10.00000,R,ugm-3,3.000,R,ugm-3 (BAM)
05-01-2012,10:00,8.000,R,ugm-3 (Ref.eq),1.00000,R,ugm-3,6.00000,R,ugm-3,8.00000,R,ugm-3,,,
05-01-2012,11:00,6.000,R,ugm-3 (Ref.eq),1.00000,R,ugm-3,4.00000,R,ugm-3,6.00000,R,ugm-3,1.000,R,ugm-3 (BAM)
05-01-2012,12:00,3.000,R,ugm-3 (Ref.eq),2.00000,R,ugm-3,13.00000,R,ugm-3,17.00000,R,ugm-3,3.000,R,ugm-3 (BAM)
05-01-2012,13:00,9.000,R,ugm-3 (Ref.eq),16.00000,R,ugm-3,15.00000,R,ugm-3,40.00000,R,ugm-3,2.000,R,ugm-3 (BAM)
05-01-2012,14:00,10.000,R,ugm-3 (Ref.eq),4.00000,R,ugm-3,10.00000,R,ugm-3,15.00000,R,ugm-3,3.000,R,ugm-3 (BAM)
05-01-2012,15:00,7.000,R,ugm-3 (Ref.eq),2.00000,R,ugm-3,11.00000,R,ugm-3,15.00000,R,ugm-3,0.000,R,ugm-3 (BAM)
05-01-2012,16:00,5.000,R,ugm-3 (Ref.eq),5.00000,R,ugm-3,11.00000,R,ugm-3,19.00000,R,ugm-3,,,
05-01-2012,17:00,3.000,R,ugm-3 (Ref.eq),4.00000,R,ugm-3,15.00000,R,ugm-3,21.00000,R,ugm-3,0.000,R,ugm-3 (BAM)
05-01-2012,18:00,4.000,R,ugm-3 (Ref.eq),1.00000,R,ugm-3,10.00000,R,ugm-3,11.00000,R,ugm-3,4.000,R,ugm-3 (BAM)
05-01-2012,19:00,7.000,R,ugm-3 (Ref.eq),1.00000,R,ugm-3,11.00000,R,ugm-3,13.00000,R,ugm-3,1.000,R,ugm-3 (BAM)
05-01-2012,20:00,8.000,R,ugm-3 (Ref.eq),1.00000,R,ugm-3,10.00000,R,ugm-3,11.00000,R,ugm-3,,,
05-01-2012,21:00,9.000,R,ugm-3 (Ref.eq),2.00000,R,ugm-3,8.00000,R,ugm-3,11.00000,R,ugm-3,1.000,R,ugm-3 (BAM)
05-01-2012,22:00,15.000,R,ugm-3 (Ref.eq),0.00000,R,ugm-3,8.00000,R,ugm-3,8.00000,R,ugm-3,0.000,R,ugm-3 (BAM)
05-01-2012,23:00,9.000,R,ugm-3 (Ref.eq),0.00000,R,ugm-3,6.00000,R,ugm-3,6.00000,R,ugm-3,0.000,R,ugm-3 (BAM)
05-01-2012,24:00,9.000,R,ugm-3 (Ref.eq),0.00000,R,ugm-3,4.00000,R,ugm-3,4.00000,R,ugm-3,1.000,R,ugm-3 (BAM)
06-01-2012,01:00,8.000,R,ugm-3 (Ref.eq),0.00000,R,ugm-3,6.00000,R,ugm-3,6.00000,R,ugm-3,1.000,R,ugm-3 (BAM)
06-01-2012,02:00,7.000,R,ugm-3 (Ref.eq),0.00000,R,ugm-3,4.00000,R,ugm-3,4.00000,R,ugm-3,3.000,R,ugm-3 (BAM)
06-01-2012,03:00,6.000,R,ugm-3 (Ref.eq),0.00000,R,ugm-3,4.00000,R,ugm-3,4.00000,R,ugm-3,2.000,R,ugm-3 (BAM)
06-01-2012,04:00,5.000,R,ugm-3 (Ref.eq),1.00000,R,ugm-3,10.00000,R,ugm-3,11.00000,R,ugm-3,2.000,R,ugm-3 (BAM)
06-01-2012,05:00,3.000,R,ugm-3 (Ref.eq),0.00000,R,ugm-3,4.00000,R,ugm-3,4.00000,R,ugm-3,,,
06-01-2012,06:00,4.000,R,ugm-3 (Ref.eq),0.00000,R,ugm-3,8.00000,R,ugm-3,8.00000,R,ugm-3,1.000,R,ugm-3 (BAM)
06-01-2012,07:00,7.000,R,ugm-3 (Ref.eq),1.00000,R,ugm-3,13.00000,R,ugm-3,15.00000,R,ugm-3,4.000,R,ugm-3 (BAM)
06-01-2012,08:00,6.000,R,ugm-3 (Ref.eq),16.00000,R,ugm-3,42.00000,R,ugm-3,67.00000,R,ugm-3,2.000,R,ugm-3 (BAM)
06-01-2012,09:00,5.000,R,ugm-3 (Ref.eq),64.00000,R,ugm-3,52.00000,R,ugm-3,149.00000,R,ugm-3,5.000,R,ugm-3 (BAM)
06-01-2012,10:00,7.000,R,ugm-3 (Ref.eq),2.00000,R,ugm-3,19.00000,R,ugm-3,23.00000,R,ugm-3,9.000,R,ugm-3 (BAM)
06-01-2012,11:00,9.000,R,ugm-3 (Ref.eq),2.00000,R,ugm-3,11.00000,R,ugm-3,15.00000,R,ugm-3,5.000,R,ugm-3 (BAM)
06-01-2012,12:00,13.000,R,ugm-3 (Ref.eq),,,,,,,,,,3.000,R,ugm-3 (BAM)
06-01-2012,13:00,15.000,R,ugm-3 (Ref.eq),1.00000,R,ugm-3,10.00000,R,ugm-3,11.00000,R,ugm-3,4.000,R,ugm-3 (BAM)
06-01-2012,14:00,12.000,R,ugm-3 (Ref.eq),1.00000,R,ugm-3,13.00000,R,ugm-3,15.00000,R,ugm-3,4.000,R,ugm-3 (BAM)
06-01-2012,15:00,18.000,R,ugm-3 (Ref.eq),1.00000,R,ugm-3,11.00000,R,ugm-3,13.00000,R,ugm-3,4.000,R,ugm-3 (BAM)
06-01-2012,16:00,15.000,R,ugm-3 (Ref.eq),1.00000,R,ugm-3,8.00000,R,ugm-3,10.00000,R,ugm-3,2.000,R,ugm-3 (BAM)
06-01-2012,17:00,5.000,R,ugm-3 (Ref.eq),1.00000,R,ugm-3,10.00000,R,ugm-3,11.00000,R,ugm-3,2.000,R,ugm-3 (BAM)
06-01-2012,18:00,5.000,R,ugm-3 (Ref.eq),1.00000,R,ugm-3,6.00000,R,ugm-3,8.00000,R,ugm-3,1.000,R,ugm-3 (BAM)
06-01-2012,19:00,4.000,R,ugm-3 (Ref.eq),0.00000,R,ugm-3,11.00000,R,ugm-3,11.00000,R,ugm-3,2.000,R,ugm-3 (BAM)
06-01-2012,20:00,4.000,R,ugm-3 (Ref.eq),0.00000,R,ugm-3,8.00000,R,ugm-3,8.00000,R,ugm-3,2.000,R,ugm-3 (BAM)
06-01-2012,21:00,5.000,R,ugm-3 (Ref.eq),0.00000,R,ugm-3,4.00000,R,ugm-3,4.00000,R,ugm-3,0.000,R,ugm-3 (BAM)
06-01-2012,22:00,5.000,R,ugm-3 (Ref.eq),0.00000,R,ugm-3,6.00000,R,ugm-3,6.00000,R,ugm-3,,,
06-01-2012,23:00,5.000,R,ugm-3 (Ref.eq),0.00000,R,ugm-3,6.00000,R,ugm-3,6.00000,R,ugm-3,0.000,R,ugm-3 (BAM)
06-01-2012,24:00,4.000,R,ugm-3 (Ref.eq),0.00000,R,ugm-3,2.00000,R,ugm-3,2.00000,R,ugm-3,1.000,R,ugm-3 (BAM)
07-01-2012,01:00,4.000,R,ugm-3 (Ref.eq),0.00000,R,ugm-3,2.00000,R,ugm-3,2.00000,R,ugm-3,2.000,R,ugm-3 (BAM)
07-01-2012,02:00,9.000,R,ugm-3 (Ref.eq),0.00000,R,ugm-3,2.00000,R,ugm-3,2.00000,R,ugm-3,5.000,R,ugm-3 (BAM)
07-01-2012,03:00,12.000,R,ugm-3 (Ref.eq),0.00000,R,ugm-3,2.00000,R,ugm-3,2.00000,R,ugm-3,9.000,R,ugm-3 (BAM)
07-01-2012,04:00,13.000,R,ugm-3 (Ref.eq),0.00000,R,ugm-3,2.00000,R,ugm-3,2.00000,R,ugm-3,9.000,R,ugm-3 (BAM)
07-01-2012,05:00,9.000,R,ugm-3 (Ref.eq),0.00000,R,ugm-3,2.00000,R,ugm-3,2.00000,R,ugm-3,3.000,R,ugm-3 (BAM)
07-01-2012,06:00,8.000,R,ugm-3 (Ref.eq),0.00000,R,ugm-3,6.00000,R,ugm-3,6.00000,R,ugm-3,2.000,R,ugm-3 (BAM)
07-01-2012,07:00,8.000,R,ugm-3 (Ref.eq),0.00000,R,ugm-3,4.00000,R,ugm-3,4.00000,R,ugm-3,2.000,R,ugm-3 (BAM)
07-01-2012,08:00,6.000,R,ugm-3 (Ref.eq),0.00000,R,ugm-3,4.00000,R,ugm-3,4.00000,R,ugm-3,2.000,R,ugm-3 (BAM)
07-01-2012,09:00,7.000,R,ugm-3 (Ref.eq),0.00000,R,ugm-3,4.00000,R,ugm-3,4.00000,R,ugm-3,5.000,R,ugm-3 (BAM)
07-01-2012,10:00,9.000,R,ugm-3 (Ref.eq),0.00000,R,ugm-3,6.00000,R,ugm-3,6.00000,R,ugm-3,5.000,R,ugm-3 (BAM)
07-01-2012,11:00,10.000,R,ugm-3 (Ref.eq),0.00000,R,ugm-3,6.00000,R,ugm-3,6.00000,R,ugm-3,3.000,R,ugm-3 (BAM)
07-01-2012,12:00,14.000,R,ugm-3 (Ref.eq),0.00000,R,ugm-3,6.00000,R,ugm-3,6.00000,R,ugm-3,6.000,R,ugm-3 (BAM)
07-01-2012,13:00,13.000,R,ugm-3 (Ref.eq),0.00000,R,ugm-3,4.00000,R,ugm-3,4.00000,R,ugm-3,4.000,R,ugm-3 (BAM)
07-01-2012,14:00,8.000,R,ugm-3 (Ref.eq),0.00000,R,ugm-3,4.00000,R,ugm-3,4.00000,R,ugm-3,2.000,R,ugm-3 (BAM)
07-01-2012,15:00,9.000,R,ugm-3 (Ref.eq),0.00000,R,ugm-3,4.00000,R,ugm-3,4.00000,R,ugm-3,2.000,R,ugm-3 (BAM)
07-01-2012,16:00,8.000,R,ugm-3 (Ref.eq),0.00000,R,ugm-3,6.00000,R,ugm-3,6.00000,R,ugm-3,3.000,R,ugm-3 (BAM)
07-01-2012,17:00,6.000,R,ugm-3 (Ref.eq),0.00000,R,ugm-3,6.00000,R,ugm-3,6.00000,R,ugm-3,3.000,R,ugm-3 (BAM)
07-01-2012,18:00,8.000,R,ugm-3 (Ref.eq),0.00000,R,ugm-3,8.00000,R,ugm-3,8.00000,R,ugm-3,4.000,R,ugm-3 (BAM)
07-01-2012,19:00,7.000,R,ugm-3 (Ref.eq),0.00000,R,ugm-3,6.00000,R,ugm-3,6.00000,R,ugm-3,6.000,R,ugm-3 (BAM)
07-01-2012,20:00,7.000,R,ugm-3 (Ref.eq),1.00000,R,ugm-3,6.00000,R,ugm-3,8.00000,R,ugm-3,3.000,R,ugm-3 (BAM)
07-01-2012,21:00,7.000,R,ugm-3 (Ref.eq),0.00000,R,ugm-3,4.00000,R,ugm-3,4.00000,R,ugm-3,3.000,R,ugm-3 (BAM)
07-01-2012,22:00,7.000,R,ugm-3 (Ref.eq),0.00000,R,ugm-3,6.00000,R,ugm-3,6.00000,R,ugm-3,3.000,R,ugm-3 (BAM)
07-01-2012,23:00,8.000,R,ugm-3 (Ref.eq),0.00000,R,ugm-3,4.00000,R,ugm-3,4.00000,R,ugm-3,1.000,R,ugm-3 (BAM)
07-01-2012,24:00,9.000,R,ugm-3 (Ref.eq),0.00000,R,ugm-3,4.00000,R,ugm-3,4.00000,R,ugm-3,3.000,R,ugm-3 (BAM)
08-01-2012,01:00,8.000,R,ugm-3 (Ref.eq),0.00000,R,ugm-3,4.00000,R,ugm-3,4.00000,R,ugm-3,7.000,R,ugm-3 (BAM)
08-01-2012,02:00,4.000,R,ugm-3 (Ref.eq),0.00000,R,ugm-3,6.00000,R,ugm-3,6.00000,R,ugm-3,3.000,R,ugm-3 (BAM)
08-01-2012,03:00,5.000,R,ugm-3 (Ref.eq),0.00000,R,ugm-3,2.00000,R,ugm-3,2.00000,R,ugm-3,,,
08-01-2012,04:00,6.000,R,ugm-3 (Ref.eq),0.00000,R,ugm-3,2.00000,R,ugm-3,2.00000,R,ugm-3,,,
08-01-2012,05:00,8.000,R,ugm-3 (Ref.eq),0.00000,R,ugm-3,4.00000,R,ugm-3,4.00000,R,ugm-3,2.000,R,ugm-3 (BAM)
08-01-2012,06:00,5.000,R,ugm-3 (Ref.eq),0.00000,R,ugm-3,2.00000,R,ugm-3,2.00000,R,ugm-3,4.000,R,ugm-3 (BAM)
08-01-2012,07:00,3.000,R,ugm-3 (Ref.eq),0.00000,R,ugm-3,2.00000,R,ugm-3,2.00000,R,ugm-3,1.000,R,ugm-3 (BAM)
08-01-2012,08:00,3.000,R,ugm-3 (Ref.eq),5.00000,R,ugm-3,17.00000,R,ugm-3,25.00000,R,ugm-3,1.000,R,ugm-3 (BAM)
08-01-2012,09:00,3.000,R,ugm-3 (Ref.eq),1.00000,R,ugm-3,11.00000,R,ugm-3,13.00000,R,ugm-3,1.000,R,ugm-3 (BAM)
08-01-2012,10:00,3.000,R,ugm-3 (Ref.eq),1.00000,R,ugm-3,13.00000,R,ugm-3,15.00000,R,ugm-3,0.000,R,ugm-3 (BAM)
08-01-2012,11:00,5.000,R,ugm-3 (Ref.eq),1.00000,R,ugm-3,13.00000,R,ugm-3,15.00000,R,ugm-3,0.000,R,ugm-3 (BAM)
08-01-2012,12:00,8.000,R,ugm-3 (Ref.eq),0.00000,R,ugm-3,11.00000,R,ugm-3,11.00000,R,ugm-3,1.000,R,ugm-3 (BAM)
08-01-2012,13:00,8.000,R,ugm-3 (Ref.eq),1.00000,R,ugm-3,10.00000,R,ugm-3,11.00000,R,ugm-3,4.000,R,ugm-3 (BAM)
08-01-2012,14:00,8.000,R,ugm-3 (Ref.eq),1.00000,R,ugm-3,10.00000,R,ugm-3,11.00000,R,ugm-3,5.000,R,ugm-3 (BAM)
08-01-2012,15:00,8.000,R,ugm-3 (Ref.eq),0.00000,R,ugm-3,8.00000,R,ugm-3,8.00000,R,ugm-3,4.000,R,ugm-3 (BAM)
08-01-2012,16:00,4.000,R,ugm-3 (Ref.eq),0.00000,R,ugm-3,10.00000,R,ugm-3,10.00000,R,ugm-3,2.000,R,ugm-3 (BAM)
08-01-2012,17:00,4.000,R,ugm-3 (Ref.eq),1.00000,R,ugm-3,13.00000,R,ugm-3,15.00000,R,ugm-3,2.000,R,ugm-3 (BAM)
08-01-2012,18:00,7.000,R,ugm-3 (Ref.eq),4.00000,R,ugm-3,19.00000,R,ugm-3,25.00000,R,ugm-3,5.000,R,ugm-3 (BAM)
08-01-2012,19:00,9.000,R,ugm-3 (Ref.eq),0.00000,R,ugm-3,10.00000,R,ugm-3,10.00000,R,ugm-3,5.000,R,ugm-3 (BAM)
08-01-2012,20:00,10.000,R,ugm-3 (Ref.eq),0.00000,R,ugm-3,8.00000,R,ugm-3,8.00000,R,ugm-3,5.000,R,ugm-3 (BAM)
08-01-2012,21:00,12.000,R,ugm-3 (Ref.eq),0.00000,R,ugm-3,6.00000,R,ugm-3,6.00000,R,ugm-3,6.000,R,ugm-3 (BAM)
08-01-2012,22:00,9.000,R,ugm-3 (Ref.eq),0.00000,R,ugm-3,6.00000,R,ugm-3,6.00000,R,ugm-3,3.000,R,ugm-3 (BAM)
08-01-2012,23:00,7.000,R,ugm-3 (Ref.eq),0.00000,R,ugm-3,4.00000,R,ugm-3,4.00000,R,ugm-3,1.000,R,ugm-3 (BAM)
08-01-2012,24:00,8.000,R,ugm-3 (Ref.eq),0.00000,R,ugm-3,2.00000,R,ugm-3,2.00000,R,ugm-3,4.000,R,ugm-3 (BAM)
09-01-2012,01:00,9.000,R,ugm-3 (Ref.eq),0.00000,R,ugm-3,2.00000,R,ugm-3,2.00000,R,ugm-3,5.000,R,ugm-3 (BAM)
09-01-2012,02:00,8.000,R,ugm-3 (Ref.eq),0.00000,R,ugm-3,2.00000,R,ugm-3,2.00000,R,ugm-3,0.000,R,ugm-3 (BAM)
09-01-2012,03:00,8.000,R,ugm-3 (Ref.eq),0.00000,R,ugm-3,2.00000,R,ugm-3,2.00000,R,ugm-3,1.000,R,ugm-3 (BAM)
09-01-2012,04:00,6.000,R,ugm-3 (Ref.eq),0.00000,R,ugm-3,4.00000,R,ugm-3,4.00000,R,ugm-3,1.000,R,ugm-3 (BAM)
09-01-2012,05:00,7.000,R,ugm-3 (Ref.eq),0.00000,R,ugm-3,2.00000,R,ugm-3,2.00000,R,ugm-3,,,
09-01-2012,06:00,6.000,R,ugm-3 (Ref.eq),0.00000,R,ugm-3,4.00000,R,ugm-3,4.00000,R,ugm-3,1.000,R,ugm-3 (BAM)
09-01-2012,07:00,7.000,R,ugm-3 (Ref.eq),0.00000,R,ugm-3,6.00000,R,ugm-3,6.00000,R,ugm-3,5.000,R,ugm-3 (BAM)
09-01-2012,08:00,8.000,R,ugm-3 (Ref.eq),0.00000,R,ugm-3,8.00000,R,ugm-3,8.00000,R,ugm-3,5.000,R,ugm-3 (BAM)
09-01-2012,09:00,5.000,R,ugm-3 (Ref.eq),2.00000,R,ugm-3,11.00000,R,ugm-3,15.00000,R,ugm-3,4.000,R,ugm-3 (BAM)
09-01-2012,10:00,3.000,R,ugm-3 (Ref.eq),0.00000,R,ugm-3,8.00000,R,ugm-3,8.00000,R,ugm-3,3.000,R,ugm-3 (BAM)
09-01-2012,11:00,5.000,R,ugm-3 (Ref.eq),1.00000,R,ugm-3,11.00000,R,ugm-3,13.00000,R,ugm-3,1.000,R,ugm-3 (BAM)
09-01-2012,12:00,7.000,R,ugm-3 (Ref.eq),2.00000,R,ugm-3,13.00000,R,ugm-3,17.00000,R,ugm-3,2.000,R,ugm-3 (BAM)
09-01-2012,13:00,6.000,R,ugm-3 (Ref.eq),1.00000,R,ugm-3,11.00000,R,ugm-3,13.00000,R,ugm-3,4.000,R,ugm-3 (BAM)
09-01-2012,14:00,6.000,R,ugm-3 (Ref.eq),1.00000,R,ugm-3,10.00000,R,ugm-3,11.00000,R,ugm-3,3.000,R,ugm-3 (BAM)
09-01-2012,15:00,8.000,R,ugm-3 (Ref.eq),2.00000,R,ugm-3,10.00000,R,ugm-3,13.00000,R,ugm-3,4.000,R,ugm-3 (BAM)
09-01-2012,16:00,13.000,R,ugm-3 (Ref.eq),16.00000,R,ugm-3,33.00000,R,ugm-3,57.00000,R,ugm-3,5.000,R,ugm-3 (BAM)
09-01-2012,17:00,14.000,R,ugm-3 (Ref.eq),2.00000,R,ugm-3,27.00000,R,ugm-3,31.00000,R,ugm-3,3.000,R,ugm-3 (BAM)
09-01-2012,18:00,13.000,R,ugm-3 (Ref.eq),10.00000,R,ugm-3,42.00000,R,ugm-3,57.00000,R,ugm-3,8.000,R,ugm-3 (BAM)
09-01-2012,19:00,11.000,R,ugm-3 (Ref.eq),11.00000,R,ugm-3,36.00000,R,ugm-3,54.00000,R,ugm-3,11.000,R,ugm-3 (BAM)
09-01-2012,20:00,19.000,R,ugm-3 (Ref.eq),4.00000,R,ugm-3,27.00000,R,ugm-3,33.00000,R,ugm-3,10.000,R,ugm-3 (BAM)
09-01-2012,21:00,13.000,R,ugm-3 (Ref.eq),4.00000,R,ugm-3,29.00000,R,ugm-3,34.00000,R,ugm-3,12.000,R,ugm-3 (BAM)
09-01-2012,22:00,16.000,R,ugm-3 (Ref.eq),2.00000,R,ugm-3,21.00000,R,ugm-3,25.00000,R,ugm-3,9.000,R,ugm-3 (BAM)
09-01-2012,23:00,10.000,R,ugm-3 (Ref.eq),0.00000,R,ugm-3,10.00000,R,ugm-3,10.00000,R,ugm-3,3.000,R,ugm-3 (BAM)
09-01-2012,24:00,11.000,R,ugm-3 (Ref.eq),0.00000,R,ugm-3,8.00000,R,ugm-3,8.00000,R,ugm-3,0.000,R,ugm-3 (BAM)
10-01-2012,01:00,12.000,R,ugm-3 (Ref.eq),1.00000,R,ugm-3,4.00000,R,ugm-3,6.00000,R,ugm-3,4.000,R,ugm-3 (BAM)
10-01-2012,02:00,12.000,R,ugm-3 (Ref.eq),1.00000,R,ugm-3,2.00000,R,ugm-3,4.00000,R,ugm-3,6.000,R,ugm-3 (BAM)
10-01-2012,03:00,11.000,R,ugm-3 (Ref.eq),1.00000,R,ugm-3,4.00000,R,ugm-3,6.00000,R,ugm-3,5.000,R,ugm-3 (BAM)